M I D A S
Marine Information and Data Acquisition System
Tripno 1999 of the Zeeleeuw from 2010-12-06 07:47:39 to 2010-12-06 18:22:24
Back to CruiseResearch ActivitiesStationsMapUnderway DataData graphs

EquipmentUnitsComments
TimeDGPSUTC
LatitudeDGPSDM.mWGS84
LongitudeDGPSDM.mWGS84
SpeedMeteo Stationm/sRelative wind speed
DirectionMeteo StationdegRelative wind direction
TemperatureMeteo Stationdeg CelciusAir temperature
PressureMeteo StationPaAtmospheric pressure
HumidityMeteo Station%Relative humidity
Missing or incorrect values are displayed as -999
Metereological data collected by the RV Zeeleeuw from 2010-12-06 07:35:11 to 2010-12-06 18:27:10
Time Latitude Longitude Speed Direction Temperature Pressure Humidity
2010-12-06 07:36 51°13.664 2°55.956 -999 355 0.8 100060 44
2010-12-06 07:37 51°13.659 2°55.957 -999 354 0.8 100060 45
2010-12-06 07:38 51°13.659 2°55.957 -999 354 0.8 100070 44
2010-12-06 07:39 51°13.66 2°55.959 -999 354 0.8 100060 44
2010-12-06 07:40 51°13.662 2°55.959 -999 347 0.8 100070 45
2010-12-06 07:41 51°13.662 2°55.96 -999 347 0.9 100070 45
2010-12-06 07:42 51°13.662 2°55.96 -999 336 0.9 100070 44
2010-12-06 07:43 51°13.661 2°55.96 -999 334 0.9 100070 45
2010-12-06 07:44 51°13.66 2°55.96 -999 344 0.9 100070 45
2010-12-06 07:45 51°13.678 2°55.902 -999 20 0.9 100070 45
2010-12-06 07:46 51°13.69 2°55.797 -999 41 0.9 100070 45
2010-12-06 07:47 51°13.687 2°55.739 -999 34 0.9 100070 45
2010-12-06 07:48 51°13.696 2°55.731 -999 19 0.8 100070 45
2010-12-06 07:49 51°13.746 2°55.695 -999 334 0.9 100070 45
2010-12-06 07:50 51°13.87 2°55.598 1 332 0.8 100070 45
2010-12-06 07:51 51°14.031 2°55.483 2.2 333 0.8 100070 45
2010-12-06 07:52 51°14.191 2°55.356 1.7 334 0.9 100070 43
2010-12-06 07:53 51°14.344 2°55.212 0.9 334 0.9 100070 44
2010-12-06 07:54 51°14.498 2°55.046 3.2 332 1 100070 46
2010-12-06 07:55 51°14.649 2°54.842 5.8 329 1.2 100060 44
2010-12-06 07:56 51°14.821 2°54.64 6.8 331 1.6 100060 46
2010-12-06 07:57 51°14.999 2°54.44 5 331 2 100060 47
2010-12-06 07:58 51°15.177 2°54.239 6.9 332 2.2 100060 45
2010-12-06 07:59 51°15.349 2°54.023 6.5 333 2.6 100050 47
2010-12-06 08:00 51°15.52 2°53.802 6.2 331 2.8 100050 47
2010-12-06 08:01 51°15.693 2°53.582 6.1 333 2.9 100050 46
2010-12-06 08:02 51°15.869 2°53.376 6.1 333 3 100050 45
2010-12-06 08:03 51°16.048 2°53.185 5.4 333 3.1 100040 47
2010-12-06 08:04 51°16.233 2°53.007 5.1 334 3.2 100050 48
2010-12-06 08:05 51°16.424 2°52.858 5.7 335 3.3 100050 47
2010-12-06 08:06 51°16.615 2°52.713 6.1 336 3.3 100040 47
2010-12-06 08:07 51°16.809 2°52.604 6.4 336 3.4 100040 47
2010-12-06 08:08 51°17.009 2°52.587 5.7 335 3.5 100040 46
2010-12-06 08:09 51°17.208 2°52.57 6.2 333 3.5 100040 45
2010-12-06 08:10 51°17.406 2°52.496 7.5 335 3.6 100050 47
2010-12-06 08:11 51°17.604 2°52.422 7.5 336 3.6 100050 45
2010-12-06 08:12 51°17.799 2°52.345 7.1 336 3.6 100040 46
2010-12-06 08:13 51°17.995 2°52.264 7.6 336 3.6 100040 46
2010-12-06 08:14 51°18.193 2°52.183 6.3 338 3.7 100040 44
2010-12-06 08:15 51°18.39 2°52.099 6.3 337 3.7 100040 45
2010-12-06 08:16 51°18.587 2°52.015 7.3 337 3.7 100050 44
2010-12-06 08:17 51°18.785 2°51.927 6.7 336 3.7 100050 44
2010-12-06 08:18 51°18.982 2°51.834 5.6 338 3.7 100050 46
2010-12-06 08:19 51°19.178 2°51.74 5.5 336 3.7 100050 46
2010-12-06 08:20 51°19.373 2°51.641 5.9 336 3.7 100050 45
2010-12-06 08:21 51°19.569 2°51.54 5.3 336 3.7 100050 46
2010-12-06 08:22 51°19.766 2°51.44 4.5 336 3.7 100050 45
2010-12-06 08:23 51°19.964 2°51.345 5.6 337 3.7 100060 45
2010-12-06 08:24 51°20.163 2°51.249 6 336 3.7 100060 45
2010-12-06 08:25 51°20.362 2°51.152 5 335 3.7 100050 45
2010-12-06 08:26 51°20.563 2°51.048 5.2 335 3.7 100050 43
2010-12-06 08:27 51°20.764 2°50.942 6.1 334 3.7 100060 43
2010-12-06 08:28 51°20.961 2°50.921 6.6 333 3.7 100060 45
2010-12-06 08:29 51°21.13 2°51.064 6.3 334 3.7 100060 43
2010-12-06 08:30 51°21.296 2°51.218 5.8 333 3.7 100050 43
2010-12-06 08:31 51°21.465 2°51.361 6.5 336 3.7 100040 44
2010-12-06 08:32 51°21.656 2°51.437 6.1 336 3.7 100050 43
2010-12-06 08:33 51°21.861 2°51.4 6.5 334 3.8 100060 45
2010-12-06 08:34 51°22.068 2°51.297 6.2 331 3.8 100050 45
2010-12-06 08:35 51°22.272 2°51.171 6.5 332 3.8 100050 43
2010-12-06 08:36 51°22.473 2°51.053 5.3 331 3.8 100050 42
2010-12-06 08:37 51°22.669 2°50.94 5.3 329 3.9 100050 45
2010-12-06 08:38 51°22.86 2°50.785 5.4 327 3.9 100050 42
2010-12-06 08:39 51°23.044 2°50.625 5.3 331 4 100060 43
2010-12-06 08:40 51°23.23 2°50.477 6.5 333 4 100050 42
2010-12-06 08:41 51°23.416 2°50.318 6.2 334 4 100040 44
2010-12-06 08:42 51°23.602 2°50.159 5.4 335 4 100050 44
2010-12-06 08:43 51°23.786 2°49.984 6.4 332 4.1 100050 43
2010-12-06 08:44 51°23.963 2°49.787 5.6 332 4.1 100050 44
2010-12-06 08:45 51°24.141 2°49.589 5.8 332 4.2 100040 42
2010-12-06 08:46 51°24.321 2°49.391 6.4 330 4.2 100050 41
2010-12-06 08:47 51°24.501 2°49.192 5.5 330 4.2 100040 42
2010-12-06 08:48 51°24.662 2°48.951 6 330 4.2 100040 43
2010-12-06 08:49 51°24.805 2°48.664 6.2 331 4.2 100050 44
2010-12-06 08:50 51°24.925 2°48.426 2 331 4.2 100050 44
2010-12-06 08:51 51°24.98 2°48.344 0.2 331 4.2 100050 43
2010-12-06 08:52 51°24.98 2°48.307 -999 333 4.2 100050 43
2010-12-06 08:53 51°24.966 2°48.269 -999 341 4.2 100060 43
2010-12-06 08:54 51°24.949 2°48.229 -999 338 4.2 100050 43
2010-12-06 08:55 51°24.931 2°48.187 -999 345 4.2 100060 43
2010-12-06 08:56 51°24.912 2°48.145 -999 337 4.2 100050 42
2010-12-06 08:57 51°24.891 2°48.102 -999 336 4.2 100060 43
2010-12-06 08:58 51°24.871 2°48.058 -999 324 4.2 100060 43
2010-12-06 08:59 51°24.852 2°48.024 -999 306 4.2 100060 42
2010-12-06 09:00 51°24.883 2°48.091 3.4 331 4.2 100050 44
2010-12-06 09:01 51°25.022 2°48.149 5.9 332 4.2 100050 44
2010-12-06 09:02 51°25.194 2°48.179 5.2 329 4.3 100050 42
2010-12-06 09:03 51°25.364 2°48.231 5.1 329 4.3 100050 42
2010-12-06 09:04 51°25.428 2°48.324 0.5 327 4.3 100060 41
2010-12-06 09:05 51°25.415 2°48.396 -999 307 4.3 100070 43
2010-12-06 09:06 51°25.374 2°48.447 -999 330 4.3 100060 43
2010-12-06 09:07 51°25.317 2°48.485 -999 329 4.3 100070 43
2010-12-06 09:08 51°25.248 2°48.492 -999 307 4.3 100060 43
2010-12-06 09:09 51°25.173 2°48.458 -999 307 4.4 100070 43
2010-12-06 09:10 51°25.105 2°48.392 -999 327 4.3 100070 43
2010-12-06 09:11 51°25.049 2°48.304 -999 332 4.3 100070 43
2010-12-06 09:12 51°25.005 2°48.201 -999 336 4.4 100070 43
2010-12-06 09:13 51°24.973 2°48.089 -999 339 4.4 100070 43
2010-12-06 09:14 51°24.946 2°47.975 -999 344 4.3 100060 43
2010-12-06 09:15 51°24.92 2°47.861 -999 353 4.4 100070 43
2010-12-06 09:16 51°24.898 2°47.745 -999 350 4.4 100070 43
2010-12-06 09:17 51°24.878 2°47.63 -999 350 4.4 100060 43
2010-12-06 09:18 51°24.858 2°47.516 -999 350 4.4 100070 43
2010-12-06 09:19 51°24.839 2°47.402 -999 353 4.4 100070 43
2010-12-06 09:20 51°24.813 2°47.292 -999 357 4.4 100070 43
2010-12-06 09:21 51°24.776 2°47.192 -999 1 4.4 100070 43
2010-12-06 09:22 51°24.732 2°47.097 -999 2 4.4 100070 43
2010-12-06 09:23 51°24.684 2°47.004 -999 -999 4.4 100070 43
2010-12-06 09:24 51°24.638 2°46.913 -999 3 4.4 100070 43
2010-12-06 09:25 51°24.596 2°46.83 -999 1 4.5 100070 43
2010-12-06 09:26 51°24.552 2°46.753 -999 8 4.5 100070 43
2010-12-06 09:27 51°24.507 2°46.679 -999 9 4.6 100070 43
2010-12-06 09:28 51°24.463 2°46.604 -999 10 4.6 100070 43
2010-12-06 09:29 51°24.415 2°46.525 -999 9 4.7 100070 43
2010-12-06 09:30 51°24.363 2°46.441 -999 5 4.7 100080 43
2010-12-06 09:31 51°24.309 2°46.356 -999 346 4.8 100070 43
2010-12-06 09:32 51°24.255 2°46.269 -999 339 4.9 100070 43
2010-12-06 09:33 51°24.202 2°46.182 -999 337 5 100070 43
2010-12-06 09:34 51°24.147 2°46.098 -999 340 5 100080 43
2010-12-06 09:35 51°24.093 2°46.013 -999 329 5.1 100080 43
2010-12-06 09:36 51°24.039 2°45.927 -999 340 5.1 100080 43
2010-12-06 09:37 51°23.985 2°45.843 -999 339 5.1 100070 43
2010-12-06 09:38 51°23.931 2°45.76 -999 332 5.2 100070 43
2010-12-06 09:39 51°23.875 2°45.678 -999 331 5.2 100080 43
2010-12-06 09:40 51°23.823 2°45.593 -999 338 5.4 100070 43
2010-12-06 09:41 51°23.788 2°45.49 -999 344 5.4 100070 43
2010-12-06 09:42 51°23.765 2°45.384 -999 356 5.3 100070 43
2010-12-06 09:43 51°23.75 2°45.275 -999 -999 5.2 100080 43
2010-12-06 09:44 51°23.741 2°45.168 -999 3 5.1 100080 42
2010-12-06 09:45 51°23.741 2°45.063 -999 359 5 100070 43
2010-12-06 09:46 51°23.748 2°44.962 -999 356 4.9 100080 43
2010-12-06 09:47 51°23.763 2°44.868 -999 351 4.9 100070 43
2010-12-06 09:48 51°23.785 2°44.782 -999 353 4.8 100080 43
2010-12-06 09:49 51°23.817 2°44.717 -999 283 4.7 100080 43
2010-12-06 09:50 51°23.855 2°44.684 1.2 286 4.7 100070 42
2010-12-06 09:51 51°23.877 2°44.667 0.1 284 4.7 100070 43
2010-12-06 09:52 51°23.887 2°44.651 0.1 283 4.7 100070 43
2010-12-06 09:53 51°23.892 2°44.633 -999 283 4.8 100070 43
2010-12-06 09:54 51°23.892 2°44.612 -999 283 4.7 100070 43
2010-12-06 09:55 51°23.889 2°44.59 -999 283 4.7 100070 42
2010-12-06 09:56 51°23.883 2°44.567 -999 283 4.7 100070 43
2010-12-06 09:57 51°23.883 2°44.553 1.7 279 4.8 100070 43
2010-12-06 09:58 51°23.952 2°44.619 5.5 285 4.9 100060 42
2010-12-06 09:59 51°24.063 2°44.791 6.3 285 4.9 100050 44
2010-12-06 10:00 51°24.205 2°45.004 7.4 331 4.9 100050 44
2010-12-06 10:01 51°24.352 2°45.223 7.9 281 4.9 100060 44
2010-12-06 10:02 51°24.501 2°45.441 6.6 333 4.9 100060 43
2010-12-06 10:03 51°24.658 2°45.648 7.8 280 4.9 100060 44
2010-12-06 10:04 51°24.816 2°45.857 7.2 286 4.9 100060 43
2010-12-06 10:05 51°24.977 2°46.059 6.1 283 4.9 100050 42
2010-12-06 10:06 51°25.14 2°46.26 7.6 283 4.9 100050 42
2010-12-06 10:07 51°25.303 2°46.461 7.6 335 4.9 100040 42
2010-12-06 10:08 51°25.465 2°46.661 8 280 4.9 100060 43
2010-12-06 10:09 51°25.625 2°46.863 5.8 284 4.9 100050 42
2010-12-06 10:10 51°25.786 2°47.066 7.5 280 4.8 100060 43
2010-12-06 10:11 51°25.952 2°47.256 7.2 285 4.8 100060 42
2010-12-06 10:12 51°26.124 2°47.427 8 288 4.8 100060 43
2010-12-06 10:13 51°26.298 2°47.591 6.4 286 4.8 100060 42
2010-12-06 10:14 51°26.471 2°47.755 6.7 281 4.8 100060 43
2010-12-06 10:15 51°26.646 2°47.92 6.3 285 4.8 100060 44
2010-12-06 10:16 51°26.82 2°48.086 5.7 285 4.8 100060 44
2010-12-06 10:17 51°26.995 2°48.254 7.1 280 4.8 100060 42
2010-12-06 10:18 51°27.17 2°48.422 5.6 336 4.8 100060 43
2010-12-06 10:19 51°27.347 2°48.589 8 280 4.8 100050 42
2010-12-06 10:20 51°27.525 2°48.754 5.7 338 4.8 100060 42
2010-12-06 10:21 51°27.704 2°48.919 6 285 4.8 100050 42
2010-12-06 10:22 51°27.884 2°49.087 6.5 338 4.9 100060 42
2010-12-06 10:23 51°28.065 2°49.252 6 281 4.9 100050 42
2010-12-06 10:24 51°28.247 2°49.416 6.5 339 4.9 100040 42
2010-12-06 10:25 51°28.431 2°49.584 7.5 284 4.9 100050 43
2010-12-06 10:26 51°28.615 2°49.751 8.7 286 4.9 100040 41
2010-12-06 10:27 51°28.798 2°49.927 6 280 4.9 100040 41
2010-12-06 10:28 51°28.978 2°50.108 7.1 280 5 100040 41
2010-12-06 10:29 51°29.158 2°50.291 6.1 282 4.9 100040 41
2010-12-06 10:30 51°29.349 2°50.448 6.2 344 4.9 100040 42
2010-12-06 10:31 51°29.538 2°50.605 9 343 5 100030 42
2010-12-06 10:32 51°29.729 2°50.761 9.2 283 5 100020 42
2010-12-06 10:33 51°29.92 2°50.916 9.3 284 5 100030 40
2010-12-06 10:34 51°30.109 2°51.072 6.2 279 5 100030 40
2010-12-06 10:35 51°30.296 2°51.231 6.4 282 5.1 100030 40
2010-12-06 10:36 51°30.48 2°51.392 6.7 345 5.1 100030 41
2010-12-06 10:37 51°30.666 2°51.55 8.3 286 5 100030 41
2010-12-06 10:38 51°30.852 2°51.71 6.3 345 5.1 100030 42
2010-12-06 10:39 51°31.038 2°51.869 5.4 281 5 100020 40
2010-12-06 10:40 51°31.231 2°52.002 6.3 346 5 100010 41
2010-12-06 10:41 51°31.427 2°52.128 8.6 281 5 100030 42
2010-12-06 10:42 51°31.622 2°52.263 8.2 344 5 100020 43
2010-12-06 10:43 51°31.816 2°52.397 6 280 5 100020 42
2010-12-06 10:44 51°31.995 2°52.523 5.7 349 5 100030 42
2010-12-06 10:45 51°32.123 2°52.618 4.1 352 5 100050 43
2010-12-06 10:46 51°32.187 2°52.681 4.5 355 5.1 100040 41
2010-12-06 10:47 51°32.189 2°52.704 1.5 350 5 100040 42
2010-12-06 10:48 51°32.181 2°52.712 2.6 347 5.1 100040 44
2010-12-06 10:49 51°32.174 2°52.718 2.6 356 5.1 100040 42
2010-12-06 10:50 51°32.168 2°52.724 -999 358 5.1 100030 43
2010-12-06 10:51 51°32.161 2°52.731 1.2 358 5.1 100030 43
2010-12-06 10:52 51°32.157 2°52.742 0.3 9 5.2 100040 45
2010-12-06 10:53 51°32.155 2°52.755 1.6 19 5.1 100040 43
2010-12-06 10:54 51°32.159 2°52.769 1.7 25 5.1 100040 42
2010-12-06 10:55 51°32.176 2°52.782 1.6 18 5.1 100040 42
2010-12-06 10:56 51°32.201 2°52.866 5.3 336 5.1 100040 42
2010-12-06 10:57 51°32.14 2°53.032 6.9 304 5.1 100040 42
2010-12-06 10:58 51°32.021 2°53.198 7.4 327 5.2 100030 42
2010-12-06 10:59 51°31.923 2°53.397 5.3 328 5.1 100020 42
2010-12-06 11:00 51°31.852 2°53.561 5.3 327 5.1 100030 44
2010-12-06 11:01 51°31.782 2°53.676 5.1 324 5.1 100040 44
2010-12-06 11:02 51°31.731 2°53.751 3.6 326 5.1 100030 42
2010-12-06 11:03 51°31.713 2°53.78 2.8 309 5.1 100050 42
2010-12-06 11:04 51°31.692 2°53.807 3.7 323 5.2 100040 44
2010-12-06 11:05 51°31.673 2°53.851 3.3 344 5.2 100050 43
2010-12-06 11:06 51°31.668 2°53.905 2.7 6 5.1 100040 44
2010-12-06 11:07 51°31.679 2°53.954 2.7 24 5 100030 42
2010-12-06 11:08 51°31.693 2°53.982 1.5 26 5 100050 43
2010-12-06 11:09 51°31.699 2°54.003 0.8 36 5.1 100050 43
2010-12-06 11:10 51°31.704 2°54.02 1.1 37 5.1 100040 42
2010-12-06 11:11 51°31.708 2°54.039 1.6 25 5.1 100030 44
2010-12-06 11:12 51°31.735 2°54.121 2.9 341 5.1 100030 44
2010-12-06 11:13 51°31.664 2°54.285 7.2 324 5 100020 43
2010-12-06 11:14 51°31.496 2°54.455 5.2 325 5 100030 44
2010-12-06 11:15 51°31.312 2°54.602 5.3 323 5.1 100020 43
2010-12-06 11:16 51°31.134 2°54.767 4.4 304 5 100020 42
2010-12-06 11:17 51°31.015 2°54.815 3.8 305 5 100030 42
2010-12-06 11:18 51°30.965 2°54.807 4 303 5 100030 41
2010-12-06 11:19 51°30.931 2°54.821 3.3 302 5 100040 43
2010-12-06 11:20 51°30.907 2°54.849 1.6 302 4.9 100030 42
2010-12-06 11:21 51°30.888 2°54.883 3 310 4.9 100040 41
2010-12-06 11:22 51°30.869 2°54.929 3.5 322 4.9 100040 42
2010-12-06 11:23 51°30.849 2°55.102 5.3 351 4.9 100040 43
2010-12-06 11:24 51°30.945 2°55.349 6.4 349 4.8 100030 43
2010-12-06 11:25 51°31.11 2°55.576 6.4 349 4.6 100040 41
2010-12-06 11:26 51°31.279 2°55.798 6.2 348 4.6 100030 42
2010-12-06 11:27 51°31.45 2°56.03 7.3 350 4.5 100030 42
2010-12-06 11:28 51°31.623 2°56.271 6.1 351 4.4 100020 41
2010-12-06 11:29 51°31.799 2°56.505 6.1 349 4.4 100030 42
2010-12-06 11:30 51°31.962 2°56.748 6.2 352 4.4 100020 43
2010-12-06 11:31 51°32.039 2°56.897 4.5 7 4.4 100030 43
2010-12-06 11:32 51°32.077 2°56.945 3.5 35 4.5 100040 44
2010-12-06 11:33 51°32.105 2°56.961 1.7 57 4.5 100040 44
2010-12-06 11:34 51°32.122 2°56.958 -999 53 4.7 100050 44
2010-12-06 11:35 51°32.124 2°56.947 2.2 314 4.8 100050 42
2010-12-06 11:36 51°32.113 2°56.943 4.4 309 4.8 100050 44
2010-12-06 11:37 51°32.094 2°56.954 4.7 304 4.8 100050 42
2010-12-06 11:38 51°32.068 2°56.975 5.2 311 4.7 100030 41
2010-12-06 11:39 51°32.041 2°56.912 -999 54 4.7 100030 41
2010-12-06 11:40 51°32.132 2°56.763 -999 7 4.7 100040 42
2010-12-06 11:41 51°32.246 2°56.567 -999 351 4.6 100030 42
2010-12-06 11:42 51°32.353 2°56.355 -999 349 4.5 100050 43
2010-12-06 11:43 51°32.41 2°56.209 -999 53 4.6 100050 43
2010-12-06 11:44 51°32.454 2°56.147 -999 54 4.6 100050 43
2010-12-06 11:45 51°32.478 2°56.112 0.1 49 4.7 100040 43
2010-12-06 11:46 51°32.491 2°56.093 2.1 51 4.8 100050 44
2010-12-06 11:47 51°32.5 2°56.083 2.1 54 4.7 100040 42
2010-12-06 11:48 51°32.505 2°56.079 2.4 310 4.6 100030 44
2010-12-06 11:49 51°32.508 2°56.077 0.2 306 4.6 100030 43
2010-12-06 11:50 51°32.508 2°56.078 1.2 304 4.6 100020 43
2010-12-06 11:51 51°32.508 2°56.087 1.6 308 4.6 100030 42
2010-12-06 11:52 51°32.509 2°56.102 1 305 4.6 100030 43
2010-12-06 11:53 51°32.512 2°56.12 3.9 302 4.6 100030 43
2010-12-06 11:54 51°32.51 2°56.116 0.1 307 4.7 100030 42
2010-12-06 11:55 51°32.53 2°55.998 -999 307 4.7 100030 43
2010-12-06 11:56 51°32.617 2°55.8 -999 335 4.7 100040 44
2010-12-06 11:57 51°32.721 2°55.62 -999 328 4.7 100050 43
2010-12-06 11:58 51°32.753 2°55.521 -999 53 4.7 100050 44
2010-12-06 11:59 51°32.755 2°55.486 -999 307 4.7 100040 44
2010-12-06 12:00 51°32.753 2°55.474 -999 307 4.7 100040 43
2010-12-06 12:01 51°32.751 2°55.475 -999 306 4.7 100050 43
2010-12-06 12:02 51°32.752 2°55.482 2.2 306 4.7 100050 43
2010-12-06 12:03 51°32.754 2°55.493 0.1 307 4.7 100040 43
2010-12-06 12:04 51°32.758 2°55.506 0.1 307 4.7 100040 43
2010-12-06 12:05 51°32.755 2°55.459 -999 307 4.7 100040 44
2010-12-06 12:06 51°32.829 2°55.335 -999 336 4.7 100040 44
2010-12-06 12:07 51°33.001 2°55.178 -999 334 4.5 100040 43
2010-12-06 12:08 51°33.212 2°55.089 -999 345 4.5 100040 43
2010-12-06 12:09 51°33.392 2°55.317 5.1 343 4.4 100020 44
2010-12-06 12:10 51°33.489 2°55.677 7.6 341 4.3 100010 44
2010-12-06 12:11 51°33.571 2°56.049 5.8 339 4.3 100010 44
2010-12-06 12:12 51°33.652 2°56.423 8.5 340 4.2 100010 44
2010-12-06 12:13 51°33.731 2°56.789 8.1 342 4.3 100020 43
2010-12-06 12:14 51°33.812 2°57.168 7.8 342 4.3 100020 43
2010-12-06 12:15 51°33.89 2°57.538 5.9 342 4.3 100020 42
2010-12-06 12:16 51°33.971 2°57.917 6.5 340 4.3 100010 43
2010-12-06 12:17 51°34.048 2°58.284 8.3 342 4.3 100000 43
2010-12-06 12:18 51°34.128 2°58.664 6.8 340 4.3 100010 44
2010-12-06 12:19 51°34.204 2°58.975 3.5 350 4.3 100010 44
2010-12-06 12:20 51°34.313 2°59.073 1.5 2 4.3 100030 44
2010-12-06 12:21 51°34.45 2°59.106 1.3 356 4.3 100040 45
2010-12-06 12:22 51°34.525 2°59.01 1.6 302 4.3 100030 43
2010-12-06 12:23 51°34.497 2°58.904 3.7 308 4.4 100020 42
2010-12-06 12:24 51°34.464 2°58.781 3.3 305 4.4 100030 43
2010-12-06 12:25 51°34.455 2°58.684 2.6 303 4.4 100020 43
2010-12-06 12:26 51°34.453 2°58.609 3.7 304 4.4 100030 43
2010-12-06 12:27 51°34.462 2°58.53 2.6 303 4.4 100020 42
2010-12-06 12:28 51°34.482 2°58.448 4 309 4.5 100020 43
2010-12-06 12:29 51°34.508 2°58.364 1.4 304 4.5 100030 45
2010-12-06 12:30 51°34.547 2°58.289 0.4 312 4.5 100020 43
2010-12-06 12:31 51°34.593 2°58.222 0.7 304 4.4 100020 44
2010-12-06 12:32 51°34.647 2°58.161 -999 307 4.4 100020 44
2010-12-06 12:33 51°34.708 2°58.111 -999 307 4.5 100020 44
2010-12-06 12:34 51°34.779 2°58.08 -999 23 4.7 100020 45
2010-12-06 12:35 51°34.857 2°58.076 -999 29 4.9 100030 44
2010-12-06 12:36 51°34.938 2°58.105 -999 21 4.9 100020 44
2010-12-06 12:37 51°35.012 2°58.17 1.5 29 4.9 100010 44
2010-12-06 12:38 51°35.071 2°58.272 1.9 11 4.7 100010 43
2010-12-06 12:39 51°35.104 2°58.4 2.2 -999 4.6 99990 43
2010-12-06 12:40 51°35.109 2°58.524 1.4 347 4.5 100000 43
2010-12-06 12:41 51°35.1 2°58.649 1.2 338 4.3 100010 45
2010-12-06 12:42 51°35.094 2°58.775 1.8 343 4.3 100010 45
2010-12-06 12:43 51°35.089 2°58.903 1.9 347 4.2 100020 44
2010-12-06 12:44 51°35.071 2°59.015 3.7 336 4.2 100010 43
2010-12-06 12:45 51°35.039 2°59.109 1.8 329 4.3 100020 43
2010-12-06 12:46 51°35.004 2°59.199 -999 329 4.4 100030 44
2010-12-06 12:47 51°34.972 2°59.297 -999 336 4.4 100020 44
2010-12-06 12:48 51°34.941 2°59.398 -999 333 4.4 100020 44
2010-12-06 12:49 51°34.911 2°59.498 -999 333 4.3 100020 44
2010-12-06 12:50 51°34.884 2°59.599 -999 335 4.3 100020 44
2010-12-06 12:51 51°34.857 2°59.703 -999 283 4.2 100020 44
2010-12-06 12:52 51°34.834 2°59.808 -999 338 4.2 100020 44
2010-12-06 12:53 51°34.813 2°59.917 -999 283 4.2 100020 44
2010-12-06 12:54 51°34.804 3°0.036 -999 350 4.1 100010 45
2010-12-06 12:55 51°34.812 3°0.16 -999 360 4 100010 44
2010-12-06 12:56 51°34.842 3°0.279 -999 12 3.9 100010 43
2010-12-06 12:57 51°34.892 3°0.392 -999 11 3.8 100010 44
2010-12-06 12:58 51°34.952 3°0.478 -999 23 3.8 100000 44
2010-12-06 12:59 51°35.017 3°0.55 -999 18 3.9 100000 45
2010-12-06 13:00 51°35.08 3°0.627 -999 20 3.9 100010 45
2010-12-06 13:01 51°35.139 3°0.715 -999 9 3.8 100000 44
2010-12-06 13:02 51°35.185 3°0.814 -999 358 3.8 100010 44
2010-12-06 13:03 51°35.213 3°0.927 -999 347 3.7 100010 44
2010-12-06 13:04 51°35.221 3°1.037 -999 342 3.7 100010 44
2010-12-06 13:05 51°35.213 3°1.142 -999 339 3.7 100010 45
2010-12-06 13:06 51°35.198 3°1.241 -999 339 3.7 99990 45
2010-12-06 13:07 51°35.179 3°1.33 -999 339 3.7 100000 45
2010-12-06 13:08 51°35.15 3°1.403 -999 283 3.6 100000 45
2010-12-06 13:09 51°35.116 3°1.444 -999 283 3.6 100000 45
2010-12-06 13:10 51°35.082 3°1.454 -999 307 3.5 100010 45
2010-12-06 13:11 51°35.054 3°1.429 -999 283 3.5 100010 45
2010-12-06 13:12 51°35.02 3°1.332 5.7 286 3.5 100000 44
2010-12-06 13:13 51°34.981 3°1.263 4.7 310 3.5 100000 45
2010-12-06 13:14 51°34.953 3°1.254 3.7 320 3.4 99990 46
2010-12-06 13:15 51°34.889 3°1.187 7.2 310 3.3 99980 45
2010-12-06 13:16 51°34.815 3°0.966 6.4 309 3.2 99990 44
2010-12-06 13:17 51°34.734 3°0.717 7.3 306 3.1 99980 44
2010-12-06 13:18 51°34.658 3°0.479 4.6 280 3 99990 43
2010-12-06 13:19 51°34.616 3°0.336 2.6 303 2.9 99990 45
2010-12-06 13:20 51°34.596 3°0.294 -999 325 2.8 99990 43
2010-12-06 13:21 51°34.594 3°0.298 -999 307 2.8 100010 44
2010-12-06 13:22 51°34.599 3°0.306 0.1 302 2.7 99990 44
2010-12-06 13:23 51°34.607 3°0.317 -999 307 2.7 99990 45
2010-12-06 13:24 51°34.617 3°0.329 -999 307 2.7 99990 45
2010-12-06 13:25 51°34.629 3°0.344 -999 307 2.6 100000 45
2010-12-06 13:26 51°34.644 3°0.359 -999 307 2.6 100000 45
2010-12-06 13:27 51°34.658 3°0.372 0.1 307 2.6 99990 45
2010-12-06 13:28 51°34.666 3°0.293 -999 283 2.6 100000 44
2010-12-06 13:29 51°34.684 3°0.064 2.9 321 2.5 100000 46
2010-12-06 13:30 51°34.73 2°59.75 1.7 305 2.4 100000 43
2010-12-06 13:31 51°34.798 2°59.427 5 305 2.3 100000 43
2010-12-06 13:32 51°34.866 2°59.119 3.5 303 2.3 99990 45
2010-12-06 13:33 51°34.951 2°58.804 5.1 319 2.3 99990 46
2010-12-06 13:34 51°35.035 2°58.501 1.6 306 2.2 100010 43
2010-12-06 13:35 51°35.118 2°58.192 1.3 327 2.2 100000 44
2010-12-06 13:36 51°35.201 2°57.884 3.1 305 2.2 100010 43
2010-12-06 13:37 51°35.285 2°57.572 4.7 303 2.3 100000 44
2010-12-06 13:38 51°35.366 2°57.271 3.5 322 2.2 100000 46
2010-12-06 13:39 51°35.448 2°56.965 1.3 302 2.2 100000 44
2010-12-06 13:40 51°35.531 2°56.658 1.9 307 2.2 100000 44
2010-12-06 13:41 51°35.616 2°56.354 0.9 305 2.3 99990 46
2010-12-06 13:42 51°35.701 2°56.047 2.1 322 2.4 100000 46
2010-12-06 13:43 51°35.785 2°55.752 2.7 304 2.3 100000 44
2010-12-06 13:44 51°35.871 2°55.45 3.9 305 2.4 99990 43
2010-12-06 13:45 51°35.954 2°55.156 1.1 303 2.4 100000 46
2010-12-06 13:46 51°36.042 2°54.853 2.8 304 2.4 100000 44
2010-12-06 13:47 51°36.123 2°54.558 2.4 280 2.3 99990 47
2010-12-06 13:48 51°36.21 2°54.254 2.5 303 2.3 99990 46
2010-12-06 13:49 51°36.294 2°53.957 -999 283 2.3 99990 45
2010-12-06 13:50 51°36.378 2°53.653 -999 283 2.3 100000 45
2010-12-06 13:51 51°36.465 2°53.345 -999 283 2.3 100000 45
2010-12-06 13:52 51°36.551 2°53.036 -999 283 2.4 100010 45
2010-12-06 13:53 51°36.634 2°52.724 -999 283 2.4 100000 46
2010-12-06 13:54 51°36.704 2°52.406 -999 283 2.4 100000 46
2010-12-06 13:55 51°36.774 2°52.088 -999 283 2.4 100000 46
2010-12-06 13:56 51°36.842 2°51.77 -999 283 2.4 100000 46
2010-12-06 13:57 51°36.913 2°51.454 -999 283 2.5 100010 46
2010-12-06 13:58 51°36.979 2°51.136 -999 283 2.6 100000 46
2010-12-06 13:59 51°37.047 2°50.819 -999 283 2.6 99990 46
2010-12-06 14:00 51°37.115 2°50.501 -999 283 2.6 100000 45
2010-12-06 14:01 51°37.186 2°50.185 -999 283 2.7 100000 46
2010-12-06 14:02 51°37.257 2°49.871 -999 283 2.7 100000 46
2010-12-06 14:03 51°37.327 2°49.556 -999 283 2.6 100000 46
2010-12-06 14:04 51°37.395 2°49.239 -999 283 2.6 100000 46
2010-12-06 14:05 51°37.463 2°48.922 -999 283 2.6 99990 46
2010-12-06 14:06 51°37.531 2°48.604 0.5 284 2.6 99990 45
2010-12-06 14:07 51°37.607 2°48.29 -999 283 2.6 100000 46
2010-12-06 14:08 51°37.704 2°47.983 -999 283 2.6 100000 45
2010-12-06 14:09 51°37.8 2°47.691 -999 283 2.6 100000 46
2010-12-06 14:10 51°37.907 2°47.405 -999 283 2.6 100000 46
2010-12-06 14:11 51°38.025 2°47.124 -999 283 2.7 100000 46
2010-12-06 14:12 51°38.153 2°46.847 -999 283 2.8 100000 46
2010-12-06 14:13 51°38.282 2°46.57 -999 283 2.8 100000 46
2010-12-06 14:14 51°38.431 2°46.308 -999 283 2.9 100000 46
2010-12-06 14:15 51°38.605 2°46.075 -999 283 2.9 99990 46
2010-12-06 14:16 51°38.789 2°45.857 -999 283 2.9 99990 46
2010-12-06 14:17 51°38.987 2°45.665 -999 353 3 100000 47
2010-12-06 14:18 51°39.212 2°45.529 -999 -999 3.1 99990 47
2010-12-06 14:19 51°39.43 2°45.401 0.7 353 3.2 99990 45
2010-12-06 14:20 51°39.653 2°45.267 1.2 350 3.3 99990 47
2010-12-06 14:21 51°39.869 2°45.135 2.6 356 3.2 100000 45
2010-12-06 14:22 51°40.1 2°45.023 2.9 355 3.3 99990 46
2010-12-06 14:23 51°40.328 2°44.933 3.4 283 3.3 99990 45
2010-12-06 14:24 51°40.563 2°44.854 1.2 282 3.4 99990 47
2010-12-06 14:25 51°40.798 2°44.773 0.3 352 3.3 99990 46
2010-12-06 14:26 51°41.029 2°44.691 0.3 357 3.3 99990 47
2010-12-06 14:27 51°41.265 2°44.607 2.2 350 3.4 99990 48
2010-12-06 14:28 51°41.495 2°44.53 1.6 355 3.5 99990 48
2010-12-06 14:29 51°41.734 2°44.463 0.1 355 3.5 99990 47
2010-12-06 14:30 51°41.967 2°44.4 0.3 3 3.5 100000 47
2010-12-06 14:31 51°42.21 2°44.376 -999 8 3.7 99990 47
2010-12-06 14:32 51°42.45 2°44.39 -999 5 3.7 100000 46
2010-12-06 14:33 51°42.693 2°44.401 -999 1 3.7 99990 47
2010-12-06 14:34 51°42.931 2°44.41 -999 18 3.7 99990 47
2010-12-06 14:35 51°43.064 2°44.385 -999 77 3.8 100000 47
2010-12-06 14:36 51°43.121 2°44.321 0.1 283 3.8 99990 47
2010-12-06 14:37 51°43.156 2°44.216 1.6 282 3.9 100010 48
2010-12-06 14:38 51°43.208 2°44.103 1.9 281 3.9 100010 47
2010-12-06 14:39 51°43.275 2°44.043 0.1 77 3.9 100010 46
2010-12-06 14:40 51°43.346 2°44.016 2.3 79 4.2 100020 46
2010-12-06 14:41 51°43.412 2°43.994 0.3 77 4 100020 47
2010-12-06 14:42 51°43.48 2°43.976 0.1 72 4.3 100010 47
2010-12-06 14:43 51°43.548 2°43.969 2.3 72 4.5 100020 48
2010-12-06 14:44 51°43.617 2°43.976 1.5 43 4.2 100020 46
2010-12-06 14:45 51°43.684 2°43.98 0.1 77 4.2 100020 47
2010-12-06 14:46 51°43.752 2°43.959 3.1 75 4.4 100020 48
2010-12-06 14:47 51°43.814 2°43.9 2.7 76 4.2 100020 46
2010-12-06 14:48 51°43.882 2°43.837 2 78 4 100010 46
2010-12-06 14:49 51°43.951 2°43.773 0.2 58 3.9 100020 45
2010-12-06 14:50 51°44.018 2°43.709 1.4 52 3.9 100020 48
2010-12-06 14:51 51°44.085 2°43.64 1.7 51 3.9 100020 45
2010-12-06 14:52 51°44.153 2°43.579 1.9 52 3.9 100020 45
2010-12-06 14:53 51°44.219 2°43.518 2.3 53 3.9 100030 46
2010-12-06 14:54 51°44.284 2°43.46 1.2 56 3.9 100020 46
2010-12-06 14:55 51°44.349 2°43.403 0.3 51 3.9 100020 46
2010-12-06 14:56 51°44.413 2°43.349 1.6 49 3.9 100030 47
2010-12-06 14:57 51°44.477 2°43.293 1.2 49 3.8 100020 46
2010-12-06 14:58 51°44.542 2°43.233 2.1 52 3.8 100020 45
2010-12-06 14:59 51°44.604 2°43.176 2.3 52 3.8 100030 46
2010-12-06 15:00 51°44.667 2°43.114 1 50 3.8 100030 45
2010-12-06 15:01 51°44.729 2°43.054 2.1 50 3.8 100020 46
2010-12-06 15:02 51°44.792 2°42.995 1.2 49 3.8 100020 47
2010-12-06 15:03 51°44.855 2°42.936 2.1 56 3.8 100010 47
2010-12-06 15:04 51°44.918 2°42.879 1.1 53 3.7 100010 45
2010-12-06 15:05 51°44.978 2°42.819 0.1 51 3.8 100030 46
2010-12-06 15:06 51°45.041 2°42.76 0.2 54 3.8 100020 46
2010-12-06 15:07 51°45.107 2°42.702 -999 53 3.8 100010 46
2010-12-06 15:08 51°45.166 2°42.642 0.1 53 3.9 100010 46
2010-12-06 15:09 51°45.238 2°42.603 -999 33 3.8 100020 46
2010-12-06 15:10 51°45.316 2°42.605 0.1 37 3.9 100010 46
2010-12-06 15:11 51°45.391 2°42.646 0.5 24 3.9 100020 46
2010-12-06 15:12 51°45.462 2°42.704 1.5 22 3.9 100010 45
2010-12-06 15:13 51°45.52 2°42.767 1.9 12 3.9 100020 45
2010-12-06 15:14 51°45.569 2°42.839 0.9 15 3.9 100030 45
2010-12-06 15:15 51°45.603 2°42.924 3.7 357 3.9 100020 45
2010-12-06 15:16 51°45.618 2°43.021 3 350 4 100010 47
2010-12-06 15:17 51°45.611 2°43.112 3.3 334 4.1 100010 45
2010-12-06 15:18 51°45.582 2°43.179 3.8 330 4 100010 47
2010-12-06 15:19 51°45.558 2°43.202 4.3 305 4 100020 46
2010-12-06 15:20 51°45.509 2°43.172 5.1 311 4 100030 44
2010-12-06 15:21 51°45.477 2°43.05 2.9 302 4 100020 47
2010-12-06 15:22 51°45.498 2°42.969 0.9 303 4.1 100030 47
2010-12-06 15:23 51°45.53 2°42.921 0.2 306 4 100040 46
2010-12-06 15:24 51°45.558 2°42.844 2.3 310 4.1 100030 47
2010-12-06 15:25 51°45.567 2°42.738 4.3 308 4 100020 46
2010-12-06 15:26 51°45.568 2°42.688 3.7 310 4 100020 45
2010-12-06 15:27 51°45.509 2°42.628 6.5 311 4 100020 47
2010-12-06 15:28 51°45.397 2°42.469 8.5 303 4 100010 44
2010-12-06 15:29 51°45.248 2°42.344 7.9 305 3.9 100010 46
2010-12-06 15:30 51°45.129 2°42.219 6.3 305 3.9 100020 47
2010-12-06 15:31 51°45.067 2°42.131 3.3 305 4 100020 45
2010-12-06 15:32 51°45.02 2°42.06 2.8 311 4 100030 47
2010-12-06 15:33 51°45.007 2°42.054 2.3 305 3.9 100030 45
2010-12-06 15:34 51°45.01 2°42.059 3.2 303 3.9 100030 45
2010-12-06 15:35 51°45.019 2°42.065 1.8 304 3.9 100020 46
2010-12-06 15:36 51°45.033 2°42.071 0.9 306 3.9 100020 44
2010-12-06 15:37 51°45.047 2°42.074 2 303 4 100020 44
2010-12-06 15:38 51°45.065 2°42.076 1.9 304 4 100030 45
2010-12-06 15:39 51°45.081 2°42.075 3.4 304 4 100030 46
2010-12-06 15:40 51°45.019 2°42.077 6.4 304 4 100020 44
2010-12-06 15:41 51°44.874 2°42.126 5 303 4 100010 46
2010-12-06 15:42 51°44.691 2°42.184 5.9 325 4 100010 45
2010-12-06 15:43 51°44.498 2°42.243 6.8 326 4 100020 45
2010-12-06 15:44 51°44.306 2°42.306 8.4 326 4 100020 43
2010-12-06 15:45 51°44.113 2°42.366 8.9 302 4 100020 46
2010-12-06 15:46 51°43.921 2°42.432 6.7 306 4 100010 44
2010-12-06 15:47 51°43.725 2°42.492 8.2 306 4.1 100010 44
2010-12-06 15:48 51°43.531 2°42.551 6.9 305 4.1 100020 44
2010-12-06 15:49 51°43.335 2°42.612 8.3 302 4.1 100010 46
2010-12-06 15:50 51°43.14 2°42.669 7.8 284 4.1 100010 45
2010-12-06 15:51 51°42.945 2°42.728 7.7 305 4 100010 44
2010-12-06 15:52 51°42.748 2°42.789 5.3 305 3.9 100010 44
2010-12-06 15:53 51°42.551 2°42.849 7 326 3.9 100010 45
2010-12-06 15:54 51°42.355 2°42.907 8.7 324 3.9 100010 45
2010-12-06 15:55 51°42.161 2°42.964 10.5 324 3.8 100020 45
2010-12-06 15:56 51°41.964 2°43.023 11.1 322 3.7 100020 44
2010-12-06 15:57 51°41.769 2°43.083 8.1 305 3.8 100020 43
2010-12-06 15:58 51°41.568 2°43.142 8.5 326 3.7 100020 43
2010-12-06 15:59 51°41.374 2°43.199 7.6 305 3.6 100020 45
2010-12-06 16:00 51°41.175 2°43.263 8.3 304 3.5 100030 43
2010-12-06 16:01 51°40.98 2°43.312 8.8 328 3.6 100020 44
2010-12-06 16:02 51°40.778 2°43.362 8.5 303 3.5 100030 45
2010-12-06 16:03 51°40.576 2°43.419 9.2 324 3.4 100030 43
2010-12-06 16:04 51°40.38 2°43.475 7.6 330 3.3 100030 45
2010-12-06 16:05 51°40.178 2°43.533 6.7 325 3.3 100040 45
2010-12-06 16:06 51°39.984 2°43.59 7.6 325 3.3 100040 43
2010-12-06 16:07 51°39.789 2°43.677 8.3 330 3.1 100040 44
2010-12-06 16:08 51°39.596 2°43.766 8.3 283 3.1 100040 43
2010-12-06 16:09 51°39.397 2°43.855 7.3 324 3.1 100050 44
2010-12-06 16:10 51°39.201 2°43.939 7.1 329 3 100040 44
2010-12-06 16:11 51°39.005 2°44.026 9.2 324 3 100050 43
2010-12-06 16:12 51°38.81 2°44.112 7.1 328 3 100050 43
2010-12-06 16:13 51°38.62 2°44.193 7.7 327 3 100040 45
2010-12-06 16:14 51°38.424 2°44.276 8.9 327 3 100050 44
2010-12-06 16:15 51°38.231 2°44.36 8.7 327 3 100050 45
2010-12-06 16:16 51°38.033 2°44.448 4.4 331 3 100050 44
2010-12-06 16:17 51°37.842 2°44.533 7.9 328 3 100050 44
2010-12-06 16:18 51°37.642 2°44.617 8.9 327 3 100040 43
2010-12-06 16:19 51°37.448 2°44.703 7.3 331 3 100050 43
2010-12-06 16:20 51°37.257 2°44.785 7.2 328 2.9 100040 43
2010-12-06 16:21 51°37.06 2°44.873 7.7 330 2.9 100050 45
2010-12-06 16:22 51°36.86 2°44.958 8.3 333 2.9 100060 45
2010-12-06 16:23 51°36.662 2°45.04 4.1 331 3 100060 45
2010-12-06 16:24 51°36.466 2°45.118 9.6 330 2.9 100060 44
2010-12-06 16:25 51°36.264 2°45.202 8.7 330 2.9 100050 43
2010-12-06 16:26 51°36.067 2°45.285 8.2 334 2.9 100050 43
2010-12-06 16:27 51°35.868 2°45.368 8.6 332 2.9 100050 45
2010-12-06 16:28 51°35.668 2°45.447 6.9 332 2.9 100060 45
2010-12-06 16:29 51°35.467 2°45.524 8.7 332 2.9 100070 44
2010-12-06 16:30 51°35.263 2°45.6 5.9 333 2.9 100070 45
2010-12-06 16:31 51°35.065 2°45.672 7.2 332 3 100080 45
2010-12-06 16:32 51°34.861 2°45.742 6.3 334 3 100080 42
2010-12-06 16:33 51°34.664 2°45.818 7.7 334 2.9 100070 43
2010-12-06 16:34 51°34.458 2°45.899 6.9 329 3 100090 45
2010-12-06 16:35 51°34.26 2°45.978 7.7 332 3 100080 45
2010-12-06 16:36 51°34.054 2°46.061 8.4 337 3 100090 45
2010-12-06 16:37 51°33.855 2°46.135 7.9 336 3 100080 43
2010-12-06 16:38 51°33.653 2°46.205 5.8 333 3.1 100080 44
2010-12-06 16:39 51°33.445 2°46.271 7.4 334 3 100080 42
2010-12-06 16:40 51°33.243 2°46.335 6.4 332 3.1 100080 42
2010-12-06 16:41 51°33.035 2°46.402 6.1 332 3.1 100090 44
2010-12-06 16:42 51°32.833 2°46.466 6.7 331 3.2 100090 43
2010-12-06 16:43 51°32.624 2°46.534 7.5 331 3.1 100080 44
2010-12-06 16:44 51°32.421 2°46.598 7.5 331 3.2 100090 44
2010-12-06 16:45 51°32.213 2°46.66 7.6 332 3.2 100090 44
2010-12-06 16:46 51°32.006 2°46.723 6.9 333 3.1 100090 43
2010-12-06 16:47 51°31.797 2°46.784 7.3 335 3.1 100090 42
2010-12-06 16:48 51°31.584 2°46.846 7 333 3.1 100080 42
2010-12-06 16:49 51°31.38 2°46.91 7.4 283 3.1 100090 43
2010-12-06 16:50 51°31.17 2°47.004 7.7 284 3.1 100100 44
2010-12-06 16:51 51°30.971 2°47.105 6.5 287 3.1 100090 44
2010-12-06 16:52 51°30.765 2°47.205 6.7 280 3 100100 43
2010-12-06 16:53 51°30.564 2°47.307 6.1 282 3 100100 44
2010-12-06 16:54 51°30.357 2°47.407 5.8 279 3 100110 43
2010-12-06 16:55 51°30.153 2°47.503 5.2 286 2.9 100100 44
2010-12-06 16:56 51°29.951 2°47.601 5.3 281 2.9 100110 44
2010-12-06 16:57 51°29.746 2°47.699 5.9 333 2.8 100110 45
2010-12-06 16:58 51°29.542 2°47.797 5.7 286 2.7 100110 45
2010-12-06 16:59 51°29.336 2°47.895 5.7 284 2.7 100110 44
2010-12-06 17:00 51°29.135 2°47.993 5.3 280 2.7 100110 45
2010-12-06 17:01 51°28.928 2°48.092 6.5 279 2.6 100120 44
2010-12-06 17:02 51°28.726 2°48.183 5.9 285 2.5 100110 45
2010-12-06 17:03 51°28.521 2°48.277 7.1 282 2.5 100110 45
2010-12-06 17:04 51°28.314 2°48.368 5.5 282 2.4 100120 43
2010-12-06 17:05 51°28.107 2°48.446 8.4 281 2.3 100120 45
2010-12-06 17:06 51°27.894 2°48.526 6.9 284 2.2 100120 45
2010-12-06 17:07 51°27.691 2°48.603 6.1 280 2.2 100120 45
2010-12-06 17:08 51°27.48 2°48.684 6 281 2.1 100110 43
2010-12-06 17:09 51°27.275 2°48.762 6 280 2 100120 45
2010-12-06 17:10 51°27.063 2°48.844 5.6 281 1.9 100120 44
2010-12-06 17:11 51°26.861 2°48.924 6.9 285 1.8 100120 44
2010-12-06 17:12 51°26.652 2°49.004 7 282 1.8 100120 43
2010-12-06 17:13 51°26.45 2°49.078 5.5 282 1.7 100120 46
2010-12-06 17:14 51°26.244 2°49.151 5.7 287 1.6 100120 46
2010-12-06 17:15 51°26.037 2°49.223 6.3 281 1.6 100120 45
2010-12-06 17:16 51°25.829 2°49.296 5.9 285 1.5 100120 43
2010-12-06 17:17 51°25.617 2°49.367 6.1 286 1.5 100120 44
2010-12-06 17:18 51°25.411 2°49.438 6.4 284 1.5 100120 43
2010-12-06 17:19 51°25.197 2°49.511 5.6 283 1.5 100120 43
2010-12-06 17:20 51°24.99 2°49.583 7 282 1.4 100120 42
2010-12-06 17:21 51°24.778 2°49.656 6.3 286 1.4 100110 43
2010-12-06 17:22 51°24.567 2°49.733 6.6 287 1.4 100120 45
2010-12-06 17:23 51°24.358 2°49.809 6 287 1.4 100120 44
2010-12-06 17:24 51°24.147 2°49.881 6.7 325 1.4 100120 46
2010-12-06 17:25 51°23.937 2°49.956 6.7 284 1.4 100130 46
2010-12-06 17:26 51°23.723 2°50.033 5.8 287 1.4 100130 46
2010-12-06 17:27 51°23.517 2°50.106 5.9 282 1.4 100130 44
2010-12-06 17:28 51°23.309 2°50.179 7.9 324 1.5 100130 44
2010-12-06 17:29 51°23.1 2°50.25 6.3 281 1.4 100130 44
2010-12-06 17:30 51°22.893 2°50.321 6 283 1.2 100130 43
2010-12-06 17:31 51°22.686 2°50.39 6.6 287 1.1 100130 45
2010-12-06 17:32 51°22.481 2°50.458 6.5 303 1 100130 44
2010-12-06 17:33 51°22.271 2°50.524 7.1 281 0.8 100140 45
2010-12-06 17:34 51°22.068 2°50.589 5.5 287 0.7 100150 45
2010-12-06 17:35 51°21.855 2°50.654 5.5 281 0.6 100150 45
2010-12-06 17:36 51°21.647 2°50.707 3.9 324 0.5 100150 42
2010-12-06 17:37 51°21.426 2°50.719 4.8 286 0.5 100150 45
2010-12-06 17:38 51°21.21 2°50.706 3.9 285 0.5 100160 45
2010-12-06 17:39 51°20.988 2°50.695 4 325 0.5 100160 43
2010-12-06 17:40 51°20.763 2°50.686 4.3 287 0.6 100150 44
2010-12-06 17:41 51°20.54 2°50.679 4.7 283 0.6 100160 46
2010-12-06 17:42 51°20.316 2°50.67 4.4 286 0.6 100150 46
2010-12-06 17:43 51°20.117 2°50.758 4.7 325 0.5 100160 46
2010-12-06 17:44 51°19.926 2°50.886 6 302 0.5 100150 45
2010-12-06 17:45 51°19.733 2°51.009 -999 283 0.5 100150 45
2010-12-06 17:46 51°19.535 2°51.138 6.6 286 0.6 100150 46
2010-12-06 17:47 51°19.343 2°51.265 5 281 0.6 100150 43
2010-12-06 17:48 51°19.147 2°51.39 4.8 305 0.7 100150 45
2010-12-06 17:49 51°18.953 2°51.515 5.9 286 0.8 100150 44
2010-12-06 17:50 51°18.751 2°51.644 6.4 283 1 100140 44
2010-12-06 17:51 51°18.551 2°51.754 5.5 285 1 100150 46
2010-12-06 17:52 51°18.345 2°51.859 6.6 286 1 100150 45
2010-12-06 17:53 51°18.137 2°51.957 6.8 280 1 100150 45
2010-12-06 17:54 51°17.928 2°52.058 7.6 286 1 100140 46
2010-12-06 17:55 51°17.718 2°52.166 6.5 286 1 100140 46
2010-12-06 17:56 51°17.514 2°52.272 7.6 287 1.2 100140 46
2010-12-06 17:57 51°17.302 2°52.376 7.6 285 1.2 100140 44
2010-12-06 17:58 51°17.099 2°52.482 6.9 285 1.2 100140 46
2010-12-06 17:59 51°16.89 2°52.587 6.7 280 1.3 100140 46
2010-12-06 18:00 51°16.682 2°52.692 8.6 286 1.3 100150 45
2010-12-06 18:01 51°16.472 2°52.794 7 282 1.3 100150 46
2010-12-06 18:02 51°16.262 2°52.893 7.4 285 1.3 100150 44
2010-12-06 18:03 51°16.064 2°52.983 6.2 280 1.3 100150 44
2010-12-06 18:04 51°15.925 2°53.035 4.9 286 1.3 100150 45
2010-12-06 18:05 51°15.808 2°53.07 4.3 286 1.3 100150 44
2010-12-06 18:06 51°15.698 2°53.106 4.4 282 1.3 100150 45
2010-12-06 18:07 51°15.585 2°53.18 5.5 285 1.2 100150 45
2010-12-06 18:08 51°15.453 2°53.313 5.9 283 1.2 100150 43
2010-12-06 18:09 51°15.324 2°53.45 5.6 281 1.1 100140 42
2010-12-06 18:10 51°15.215 2°53.596 5.5 287 1.1 100150 43
2010-12-06 18:11 51°15.102 2°53.776 6.6 280 1.1 100150 44
2010-12-06 18:12 51°14.971 2°53.997 7.1 279 1.1 100140 42
2010-12-06 18:13 51°14.848 2°54.238 6.3 284 1 100140 44
2010-12-06 18:14 51°14.757 2°54.468 5.8 287 1 100150 43
2010-12-06 18:15 51°14.667 2°54.711 6 282 0.9 100140 44
2010-12-06 18:16 51°14.556 2°54.95 6.3 286 0.8 100150 42
2010-12-06 18:17 51°14.403 2°55.151 5.8 282 0.7 100150 42
2010-12-06 18:18 51°14.24 2°55.323 5.8 285 0.6 100150 42
2010-12-06 18:19 51°14.112 2°55.423 4.5 281 0.4 100150 43
2010-12-06 18:20 51°13.995 2°55.505 4.1 286 0.3 100150 42
2010-12-06 18:21 51°13.886 2°55.586 4.2 287 0.2 100150 42
2010-12-06 18:22 51°13.8 2°55.662 1 279 0.1 100160 41
2010-12-06 18:23 51°13.731 2°55.759 0.5 283 -999 100160 43
2010-12-06 18:24 51°13.692 2°55.851 1 279 -0.2 100160 40
2010-12-06 18:25 51°13.666 2°55.947 0.2 283 -0.3 100160 41
2010-12-06 18:26 51°13.664 2°55.952 -999 284 -0.3 100160 41